Location: Essen
(51.4609°N, 7.0127°E)
Time: 05:06:12
(UTC+01:00)

ISS - Pass Details

Date: 12 February 2018
Orbit: 402 x 407 km, 51.6° (Epoch: 24 February)

Event Time Altitude Azimuth Distance (km) Brightness Sun altitude
Rises 18:30:58 0° 282° (WNW) 2,321 1.4 -8.2°
Reaches altitude 10° 18:33:22 10° 266° (W) 1,459 0.7 -8.6°
Maximum altitude 18:35:53 21° 215° (SW) 978 -1.3 -9.0°
Drops below altitude 10° 18:38:24 10° 165° (SSE) 1,454 -1.1 -9.4°
Sets 18:40:47 0° 148° (SSE) 2,310 -0.2 -9.7°
